Weather History for KJGG - May, 2012

Change the Weather History Date:

Thursday, May 10, 2012

  Actual Average (KRIC) Record (KRIC)
Temperature  
Mean Temperature 65 °F 65 °F  
Max Temperature 75 °F 77 °F 94 °F (1963)
Min Temperature 53 °F 53 °F 35 °F (1966)
Degree Days  
Heating Degree Days 0 3  
Month to date heating degree days 36  
Since 1 July heating degree days 3728  
Cooling Degree Days 0 3  
Month to date cooling degree days 22  
Year to date cooling degree days 64  
Growing Degree Days 15 (Base 50)    
Moisture  
Dew Point 52 °F    
Average Humidity 69    
Maximum Humidity 100    
Minimum Humidity 36    
Precipitation  
Precipitation 0.01 in 0.12 in 1.35 in (1990)
Month to date precipitation 1.12  
Year to date precipitation 14.23  
Snow  
Snow 0.00 in 0.00 in 0.00 in (2002)
Month to date snowfall 0.0  
Since 1 July snowfall 10.3  
Snow Depth -    
Sea Level Pressure  
Sea Level Pressure 29.77 in    
Wind  
Wind Speed 7 mph (NW)    
Max Wind Speed 20 mph    
Max Gust Speed 26 mph    
Visibility 9 miles    
Events      
T = Trace of Precipitation, MM = Missing Value Source: NWS Daily Summary

Daily Weather History Graph

Daily Weather History Graph

Search for Another Location

Airport or City:

Trip Planner

Search our weather history database for the weather conditions in past years. The results will help you decide how hot, cold, wet, or windy it might be!

Date:

Astronomy

May. 10, 2012 Rise Set
Actual Time 6:02 AM EDT 8:04 PM EDT
Civil Twilight 5:33 AM EDT 8:33 PM EDT
Nautical Twilight 4:58 AM EDT 9:08 PM EDT
Astronomical Twilight 4:20 AM EDT 9:46 PM EDT
Moon 12:01 AM EDT (5/10) 10:24 AM EDT (5/10)
Length of Visible Light 15h 00m
Length of Day
14h 02m
Waning Gibbous, 73% of the Moon is Illuminated
May 10
Waning Gibbous
May 12
Last Quarter
May 20
New
May 28
First Quarter
Jun 4
Full

Hourly Weather History & Observations

Time (EDT) Temp. Dew Point Humidity Pressure Visibility Wind Dir Wind Speed Gust Speed Precip Events Conditions
12:15 AM 60.8 °F 57.2 °F 88% 29.66 in 7.0 mi NNW 4.6 mph - N/A   Overcast
12:35 AM 60.8 °F 57.2 °F 88% 29.65 in 7.0 mi NNW 6.9 mph - N/A   Overcast
12:55 AM 60.8 °F 57.2 °F 88% 29.65 in 10.0 mi NNW 8.1 mph - 0.01 in   Overcast
1:15 AM 60.8 °F 57.2 °F 88% 29.66 in 10.0 mi NW 6.9 mph - N/A   Overcast
1:35 AM 60.8 °F 57.2 °F 88% 29.65 in 7.0 mi NNW 6.9 mph - N/A   Overcast
1:55 AM 60.8 °F 57.2 °F 88% 29.64 in 5.0 mi NNW 4.6 mph - N/A   Overcast
2:15 AM 60.8 °F 57.2 °F 88% 29.65 in 5.0 mi NW 5.8 mph - N/A   Overcast
2:35 AM 60.8 °F 57.2 °F 88% 29.66 in 10.0 mi WNW 4.6 mph - N/A   Overcast
2:55 AM 60.8 °F 57.2 °F 88% 29.65 in 10.0 mi WNW 6.9 mph - N/A   Overcast
3:15 AM 60.8 °F 57.2 °F 88% 29.65 in 7.0 mi NW 6.9 mph - N/A   Scattered Clouds
3:35 AM 59.0 °F 57.2 °F 94% 29.66 in 7.0 mi NW 5.8 mph - N/A   Scattered Clouds
3:55 AM 59.0 °F 57.2 °F 94% 29.67 in 7.0 mi WNW 6.9 mph - N/A   Scattered Clouds
4:15 AM 57.2 °F 57.2 °F 100% 29.67 in 7.0 mi WNW 6.9 mph - N/A   Clear
4:35 AM 57.2 °F 55.4 °F 94% 29.66 in 7.0 mi WNW 5.8 mph - N/A   Clear
4:55 AM 57.2 °F 55.4 °F 94% 29.66 in 7.0 mi WNW 6.9 mph - N/A   Clear
5:15 AM 57.2 °F 55.4 °F 94% 29.66 in 7.0 mi WNW 5.8 mph - N/A   Clear
5:35 AM 57.2 °F 55.4 °F 94% 29.66 in 5.0 mi WNW 5.8 mph - N/A   Clear
5:55 AM 57.2 °F 55.4 °F 94% 29.67 in 7.0 mi WNW 5.8 mph - N/A   Clear
6:15 AM 57.2 °F 55.4 °F 94% 29.68 in 3.0 mi WNW 6.9 mph - N/A   Clear
6:35 AM 57.2 °F 55.4 °F 94% 29.69 in 2.5 mi WNW 5.8 mph - N/A   Clear
6:55 AM 57.2 °F 55.4 °F 94% 29.70 in 5.0 mi NW 4.6 mph - N/A   Clear
7:15 AM 57.2 °F 55.4 °F 94% 29.71 in 10.0 mi NW 5.8 mph - N/A   Clear
7:35 AM 57.2 °F 55.4 °F 94% 29.72 in 10.0 mi NW 6.9 mph - N/A   Clear
7:55 AM 57.2 °F 55.4 °F 94% 29.72 in 10.0 mi NW 6.9 mph - N/A   Clear
8:15 AM 57.2 °F 57.2 °F 100% 29.73 in 10.0 mi NNW 9.2 mph - N/A   Clear
8:35 AM 59.0 °F 55.4 °F 88% 29.73 in 10.0 mi NNW 11.5 mph - N/A   Clear
8:55 AM 60.8 °F 55.4 °F 82% 29.74 in 10.0 mi NNW 11.5 mph 17.3 mph N/A   Clear
9:15 AM 60.8 °F 55.4 °F 82% 29.74 in 10.0 mi NNW 9.2 mph - N/A   Clear
9:35 AM 62.6 °F 53.6 °F 72% 29.75 in 10.0 mi NNW 10.4 mph 17.3 mph N/A   Clear
9:55 AM 64.4 °F 51.8 °F 64% 29.75 in 10.0 mi NNW 19.6 mph 26.5 mph N/A   Clear
10:15 AM 64.4 °F 51.8 °F 64% 29.75 in 10.0 mi North 10.4 mph 24.2 mph N/A   Clear
10:35 AM 66.2 °F 53.6 °F 64% 29.76 in 10.0 mi NNW 9.2 mph 17.3 mph N/A   Scattered Clouds
10:55 AM 68.0 °F 51.8 °F 56% 29.76 in 10.0 mi NNW 11.5 mph 20.7 mph N/A   Scattered Clouds
11:15 AM 69.8 °F 51.8 °F 53% 29.77 in 10.0 mi NW 16.1 mph 26.5 mph N/A   Scattered Clouds
11:35 AM 69.8 °F 51.8 °F 53% 29.77 in 10.0 mi NNW 11.5 mph 16.1 mph N/A   Scattered Clouds
11:55 AM 69.8 °F 51.8 °F 53% 29.77 in 10.0 mi NNW 11.5 mph 18.4 mph N/A   Scattered Clouds
12:15 PM 71.6 °F 48.2 °F 43% 29.77 in 10.0 mi NW 18.4 mph 25.3 mph N/A   Scattered Clouds
12:35 PM 71.6 °F 51.8 °F 50% 29.77 in 10.0 mi NNW 8.1 mph 20.7 mph N/A   Scattered Clouds
12:55 PM 71.6 °F 51.8 °F 50% 29.78 in 10.0 mi NW 10.4 mph 18.4 mph N/A   Scattered Clouds
1:15 PM 73.4 °F 51.8 °F 47% 29.78 in 10.0 mi NNW 9.2 mph 17.3 mph N/A   Scattered Clouds
1:35 PM 71.6 °F 48.2 °F 43% 29.78 in - WNW 11.5 mph 17.3 mph N/A   Scattered Clouds
1:55 PM 71.6 °F 48.2 °F 43% 29.77 in 10.0 mi NW 11.5 mph - N/A   Scattered Clouds
2:15 PM 71.6 °F 50.0 °F 46% 29.77 in 10.0 mi NNW 10.4 mph 21.9 mph N/A   Mostly Cloudy
2:35 PM 75.2 °F 48.2 °F 38% 29.77 in 10.0 mi NW 13.8 mph 21.9 mph N/A   Scattered Clouds
2:55 PM 73.4 °F 46.4 °F 38% 29.77 in 10.0 mi NW 6.9 mph 16.1 mph N/A   Scattered Clouds
3:15 PM 71.6 °F 46.4 °F 41% 29.77 in 10.0 mi NW 13.8 mph 17.3 mph N/A   Scattered Clouds
3:35 PM 73.4 °F 46.4 °F 38% 29.77 in 10.0 mi NW 11.5 mph 19.6 mph N/A   Clear
3:55 PM 75.2 °F 48.2 °F 38% 29.78 in 10.0 mi NNW 10.4 mph - N/A   Scattered Clouds
4:15 PM 73.4 °F 46.4 °F 38% 29.78 in 10.0 mi North 10.4 mph - N/A   Mostly Cloudy
4:35 PM 75.2 °F 46.4 °F 36% 29.79 in 10.0 mi NNW 9.2 mph 17.3 mph N/A   Scattered Clouds
4:55 PM 71.6 °F 44.6 °F 38% 29.80 in 10.0 mi NNW 12.7 mph - N/A   Scattered Clouds
5:15 PM 73.4 °F 44.6 °F 36% 29.81 in 10.0 mi NW 10.4 mph 16.1 mph N/A   Scattered Clouds
5:35 PM 71.6 °F 46.4 °F 41% 29.81 in 10.0 mi North 6.9 mph - N/A   Clear
5:55 PM 73.4 °F 46.4 °F 38% 29.82 in 10.0 mi NNW 5.8 mph - N/A   Scattered Clouds
6:15 PM 71.6 °F 44.6 °F 38% 29.83 in 10.0 mi NNW 10.4 mph 17.3 mph N/A   Clear
6:35 PM 71.6 °F 44.6 °F 38% 29.83 in 10.0 mi NNW 6.9 mph - N/A   Clear
6:55 PM 71.6 °F 44.6 °F 38% 29.84 in 10.0 mi North 3.5 mph - N/A   Clear
7:15 PM 69.8 °F 46.4 °F 43% 29.85 in 10.0 mi NNW 6.9 mph - N/A   Clear
7:35 PM 64.4 °F 46.4 °F 52% 29.86 in 10.0 mi NNW 3.5 mph - N/A   Clear
7:55 PM 64.4 °F 46.4 °F 52% 29.87 in 10.0 mi NNW 3.5 mph - N/A   Clear
8:15 PM 62.6 °F 46.4 °F 55% 29.88 in 10.0 mi NNW 3.5 mph - N/A   Clear
8:35 PM 60.8 °F 46.4 °F 59% 29.89 in 10.0 mi Calm Calm - N/A   Clear
8:55 PM 59.0 °F 50.0 °F 72% 29.90 in 10.0 mi Calm Calm - N/A   Clear
9:15 PM 57.2 °F 50.0 °F 77% 29.91 in 10.0 mi Calm Calm - N/A   Clear
9:35 PM 57.2 °F 50.0 °F 77% 29.92 in 10.0 mi Calm Calm - N/A   Clear
9:55 PM 55.4 °F 50.0 °F 82% 29.92 in 10.0 mi Calm Calm - N/A   Clear
10:15 PM 55.4 °F 51.8 °F 88% 29.93 in 10.0 mi Calm Calm - N/A   Scattered Clouds
10:35 PM 55.4 °F 48.2 °F 77% 29.93 in 10.0 mi Calm Calm - N/A   Scattered Clouds
10:55 PM 55.4 °F 50.0 °F 82% 29.93 in 10.0 mi Calm Calm - N/A   Clear
11:15 PM 55.4 °F 51.8 °F 88% 29.94 in 10.0 mi Calm Calm - N/A   Clear
11:35 PM 53.6 °F 51.8 °F 94% 29.95 in 10.0 mi Calm Calm - N/A   Clear